Location: Kra?nica
(53.4833°N, 14.6167°E)
Time: 16:39:01
(UTC+00:00)

Cosmos 1242 Rocket - Pass Details

Date: 23 May 2024
Orbit: 323 x 338 km, 81.1° (Epoch: 13 June)

Event Time Altitude Azimuth Distance (km) Brightness Sun altitude
Exits shadow 01:14:34 14° 185° (S) 1,136 3.9 -10.3°
Maximum altitude 01:16:58 73° 102° (ESE) 387 2.1 -10.1°
Drops below altitude 10° 01:19:56 10° 17° (NNE) 1,369 6.2 -9.8°
Sets 01:21:56 0° 15° (NNE) 2,225 7.5 -9.7°
